Weather History for Owensboro, KY

Change the Weather History Date:

Monday, April 7, 2014

  Actual Average Record
Temperature  
Mean Temperature 49 °F -  
Max Temperature 55 °F 66 °F 85 °F (1959)
Min Temperature 43 °F 40 °F 24 °F (1982)
Degree Days  
Heating Degree Days 16    
Moisture  
Dew Point 48 °F    
Average Humidity 96    
Maximum Humidity 100    
Minimum Humidity 51    
Precipitation  
Precipitation 0.45 in - - ()
Sea Level Pressure  
Sea Level Pressure 29.60 in    
Wind  
Wind Speed 10 mph (North)    
Max Wind Speed 23 mph    
Max Gust Speed 28 mph    
Visibility 4 miles    
Events Rain , Thunderstorm    
Averages and records for this station are not official NWS values.
T = Trace of Precipitation, MM = Missing Value Source: NWS Daily Summary

Daily Weather History Graph

Daily Weather History Graph

Search for Another Location

Airport:

Trip Planner

Search our weather history database for the weather conditions in past years. The results will help you decide how hot, cold, wet, or windy it might be!

Date:

Astronomy

Apr. 07, 2014 Rise Set
Actual Time 6:25 AM CDT 7:17 PM CDT
Civil Twilight 5:58 AM CDT 7:43 PM CDT
Nautical Twilight 5:26 AM CDT 8:15 PM CDT
Astronomical Twilight 4:54 AM CDT 8:48 PM CDT
Moon 12:23 PM CDT (4/7) 1:51 AM CDT (4/7)
Length of Visible Light 13h 45m
Length of Day
12h 52m
First Quarter, 53% of the Moon is Illuminated
Apr 7
First Quarter
Apr 15
Full
Apr 22
Last Quarter
Apr 29
New
May 6
First Quarter

Hourly Weather History & Observations

Time (CDT) Temp. Windchill Dew Point Humidity Pressure Visibility Wind Dir Wind Speed Gust Speed Precip Events Conditions
12:56 AM 54.9 °F - 36.9 °F 51% 29.82 in 10.0 mi East 9.2 mph - N/A   Overcast
1:56 AM 52.9 °F - 39.9 °F 61% 29.77 in 10.0 mi ESE 10.4 mph - N/A   Overcast
2:56 AM 54.0 °F - 39.9 °F 59% 29.73 in 10.0 mi East 5.8 mph - N/A   Mostly Cloudy
3:56 AM 52.0 °F - 43.9 °F 74% 29.73 in 7.0 mi SE 6.9 mph - 0.00 in Rain Light Rain
4:56 AM 48.9 °F - 48.9 °F 100% 29.71 in 2.5 mi NE 5.8 mph - 0.00 in Rain Light Rain
5:38 AM 48.2 °F - 48.2 °F 100% 29.64 in 3.0 mi ENE 10.4 mph - 0.00 in Rain Light Rain
5:49 AM 48.2 °F - 48.2 °F 100% 29.64 in 3.0 mi ENE 11.5 mph - 0.00 in   Overcast
5:56 AM 48.9 °F - 48.9 °F 100% 29.64 in 4.0 mi ENE 9.2 mph - 0.00 in   Overcast
6:56 AM 50.0 °F - 50.0 °F 100% 29.66 in 1.2 mi East 6.9 mph - 0.02 in Rain Light Rain
7:37 AM 50.0 °F - 50.0 °F 100% 29.63 in 1.2 mi East 9.2 mph - 0.00 in   Overcast
7:56 AM 50.9 °F - 50.9 °F 100% 29.63 in 2.0 mi East 9.2 mph - 0.00 in Rain Light Rain
8:01 AM 51.8 °F - 51.8 °F 100% 29.63 in 2.0 mi East 8.1 mph - 0.01 in Rain , Thunderstorm Light Thunderstorms and Rain
8:26 AM 51.8 °F - 51.8 °F 100% 29.58 in 4.0 mi East 9.2 mph - 0.10 in Rain Light Rain
8:28 AM 51.8 °F - 51.8 °F 100% 29.58 in 4.0 mi ENE 9.2 mph - 0.10 in Rain Light Rain
8:29 AM 51.8 °F - 51.8 °F 100% 29.58 in 4.0 mi ENE 8.1 mph - 0.10 in Rain Light Rain
8:56 AM 50.9 °F - 50.9 °F 100% 29.55 in 2.5 mi NE 9.2 mph - 0.11 in Rain , Thunderstorm Light Thunderstorms and Rain
9:10 AM 51.8 °F - 51.8 °F 100% 29.53 in 1.2 mi ENE 10.4 mph - 0.05 in Rain , Thunderstorm Light Thunderstorms and Rain
9:12 AM 51.8 °F - 51.8 °F 100% 29.52 in 1.2 mi NE 10.4 mph - 0.06 in Rain , Thunderstorm Light Thunderstorms and Rain
9:56 AM 50.9 °F - 50.9 °F 100% 29.54 in 1.2 mi North 8.1 mph - 0.32 in Rain Heavy Rain
11:07 AM 53.6 °F - 53.6 °F 100% 29.49 in 8.0 mi ESE 11.5 mph - 0.00 in   Overcast
11:56 AM 54.9 °F - 54.9 °F 100% 29.46 in 10.0 mi East 9.2 mph - 0.00 in   Overcast
12:56 PM 55.9 °F - 55.9 °F 100% 29.45 in 10.0 mi SSW 4.6 mph - N/A   Overcast
1:26 PM 53.6 °F - 53.6 °F 100% 29.46 in 3.0 mi WNW 11.5 mph - N/A   Overcast
1:46 PM 51.8 °F - 51.8 °F 100% 29.46 in 3.0 mi WNW 9.2 mph - N/A   Overcast
1:56 PM 52.0 °F - 52.0 °F 100% 29.46 in 3.0 mi WNW 10.4 mph - N/A   Overcast
2:56 PM 52.0 °F - 52.0 °F 100% 29.47 in 4.0 mi WNW 15.0 mph - 0.00 in Rain Light Rain
3:14 PM 51.8 °F - 51.8 °F 100% 29.47 in 2.0 mi West 12.7 mph - 0.00 in   Light Drizzle
3:32 PM 51.8 °F - 51.8 °F 100% 29.48 in 1.0 mi West 13.8 mph - 0.00 in   Light Drizzle
3:56 PM 47.8 °F - 47.8 °F 100% 29.50 in 1.8 mi WNW 21.9 mph 26.5 mph 0.00 in Rain Light Rain
3:58 PM 48.2 °F - 48.2 °F 100% 29.50 in 1.8 mi WNW 23.0 mph 27.6 mph 0.00 in Rain Light Rain
4:00 PM 48.2 °F - 48.2 °F 100% 29.50 in 1.8 mi WNW 20.7 mph 27.6 mph 0.00 in Rain Light Rain
4:56 PM 45.9 °F 39.1 °F 45.9 °F 100% 29.54 in 2.0 mi WNW 16.1 mph 23.0 mph 0.00 in Rain Light Rain
5:14 PM 46.4 °F 41.1 °F 46.4 °F 100% 29.55 in 3.0 mi WNW 11.5 mph 20.7 mph 0.00 in   Overcast
5:48 PM 46.4 °F 39.5 °F 46.4 °F 100% 29.58 in 2.0 mi West 17.3 mph 24.2 mph 0.00 in Rain Light Rain
5:56 PM 45.9 °F 38.8 °F 45.9 °F 100% 29.59 in 2.0 mi West 17.3 mph 25.3 mph 0.00 in Rain Light Rain
6:03 PM 46.4 °F 39.2 °F 46.4 °F 100% 29.59 in 2.0 mi WNW 18.4 mph 24.2 mph 0.00 in Rain Light Rain
6:56 PM 45.0 °F 37.4 °F 45.0 °F 100% 29.64 in 2.0 mi WNW 18.4 mph 24.2 mph 0.00 in   Overcast
7:34 PM 44.6 °F 37.4 °F 44.6 °F 100% 29.66 in 3.0 mi WNW 16.1 mph 25.3 mph 0.00 in   Overcast
7:56 PM 45.0 °F 37.6 °F 45.0 °F 100% 29.69 in 6.0 mi WNW 17.3 mph - 0.00 in Rain Light Rain
8:56 PM 45.0 °F 38.9 °F 45.0 °F 100% 29.74 in 6.0 mi WNW 12.7 mph - 0.00 in Rain Light Rain
9:56 PM 43.9 °F 37.9 °F 43.9 °F 100% 29.76 in 6.0 mi West 11.5 mph - 0.00 in Rain Light Rain
10:56 PM 45.0 °F 40.6 °F 45.0 °F 100% 29.76 in 10.0 mi West 8.1 mph - 0.00 in   Overcast
11:56 PM 43.9 °F 39.3 °F 43.9 °F 100% 29.77 in 10.0 mi West 8.1 mph - N/A   Overcast